DECAYED

FENGYUN 1C DEB, 30019 (Decayed)

Orbit data source: Space-Track

FENGYUN 1C DEB, 30019 was space debris in SSO originally from a launch on Mon, 10 May 1999 UTC launched from the Taiyaun Space Center, China (TSC). Fengyun 1C debris stems from the Chinese weather satellite Fengyun-1C, which was intentionally destroyed by a Chinese anti-satellite missile in 2007. This event dramatically increased the amount of space debris, with thousands of trackable fragments posing hazards to satellites and human spaceflight. The Fengyun 1C debris cloud has become a focal point in discussions about space sustainability and the need for international regulations to prevent the creation of new debris.

Not visible in the next 10 days
Identifier
30019, 1999-025MU
Orbit
Decayed
Country
Flag of CNCN / PRC
Related business
Manufacturer
Unknown
Mission
Decayed spacecraft
Bus & Motor
Unknown
Mass
Unknown
Launch date (UTC)
1999-05-10 (27 years ago)
Launch vehicle
Unknown
Launch site
Taiyaun Space Center, China (TSC)
Object type
Payload
Rocket body
Debris
Shape & HBR
Unknown shape, 0.1 m
Radar Cross Section
Medium (>0.1 m² and <1 m²)

Expand to show TLE details & history
Last TLE update: 7 months ago

TLE from 7 months ago
0 FENGYUN 1C DEB
1 30019U 99025MU  25316.69960869  .07123976  68806-1  31379-1 0  9996
2 30019  98.1377 296.1757 0026056 119.7381 240.6486 15.88651350979777
Epoch: 2025-11-12T16:47Z
TLE epoch observation values (Epoch: 2025-11-12T16:47:26.190Z)
Latitude
-0.00008°
Longitude
-7.75147°
Altitude
317.797 km
Speed
7.713 km/s
True Right ascension
19h 44m 42s
True Declination
0° 00' 00"
Sunlit
Object was in daylight at epoch
Visualization orbit readout
Latitude
Unknown
Longitude
Unknown
Altitude
Unknown
Speed
Unknown
Apparent Right ascension
Unknown
Apparent Declination
Unknown
Sunlit
N/A
Visualization observer readout
Local Sidereal Time
06:07:42
Azimuth
Unknown
Elevation
Unknown
Doppler factor
Unknown
Orbital elements
Apogee altitude
320.38 km
Perigee altitude
285.564 km
Semi-major axis
6,681.109 km
Eccentricity
0.00261
Inclination
98.1377°
RAAN
296.1757°
Arg. of periapsis
119.7381°
True anomaly
240.38876°
Mean anomaly
240.6486°
Eccentric anomaly
240.51864°
Mean motion
3.97439 °/min
Orbital period
90.58 mins
BSTAR
0.031379
Loading maneuver chart data...
Computing Atmospheric mass density...
Loading historical data...
Loading historical data...
Loading historical data...
Loading historical data...
Loading historical data...
Loading historical data...
Loading historical data...

Documentation

Showing up to 5 results
|